CES7630 ZUXC-PHNL

Flight info

Callsign CES7630
Flight time N/A
Altitude 35100
Route BOPTU W162 KAKMI W144 IGNAK W179 WFX B213 ESPEG V154 SNF W269 OLPOV B213 WHA R343 PK A593 AKARA/K0909F351 A593 LAMEN/N0492F351 A593 SADLI Y590 BEDAR Y591 FUE Y23 KASTE Y81 TASOT Y57 LIGNI Y816 IPROS Y830 LAPIL OTR13 SEALS DCT 34N153E DCT 34N159E DCT 33N166E DCT 31N173E DCT 29N179E DCT 27N174W DCT 25N168W DCT CANON DCT CANON
Aircraft MD11/H-SDE1E2E3FGHIJ2J3J4J5M1RWXY/LB1D1

Departure

Time 2026-04-22 13:58
Airport Xichang Qingshan Airport (ZUXC)

Arrival

Time N/A
Airport Daniel K. Inouye International Airport (PHNL)
Time Latitude Longitude Altitude Speed Heading
2026-04-22 13:27 27.98292 102.18647 5090 ft 0 kts 88°
2026-04-22 13:40 27.98292 102.18638 5095 ft 4 kts 88°
2026-04-22 13:40 27.98292 102.18609 5095 ft 3 kts 88°
2026-04-22 13:41 27.98289 102.18585 5095 ft 4 kts 52°
2026-04-22 13:41 27.98282 102.18574 5097 ft 4 kts 351°
2026-04-22 13:41 27.98257 102.18583 5094 ft 4 kts 339°
2026-04-22 13:41 27.98232 102.18592 5095 ft 4 kts 354°
2026-04-22 13:42 27.98225 102.18593 5096 ft 0 kts
2026-04-22 13:51 27.98226 102.18593 5097 ft 0 kts
2026-04-22 13:51 27.98245 102.18592 5094 ft 6 kts 359°
2026-04-22 13:51 27.98298 102.18591 5094 ft 9 kts 358°
2026-04-22 13:51 27.98363 102.18588 5094 ft 10 kts 357°
2026-04-22 13:52 27.98439 102.18584 5097 ft 12 kts 357°
2026-04-22 13:52 27.98525 102.18581 5097 ft 13 kts 359°
2026-04-22 13:52 27.98621 102.18579 5097 ft 14 kts 359°
2026-04-22 13:52 27.98725 102.18575 5097 ft 15 kts 357°
2026-04-22 13:53 27.98834 102.18570 5095 ft 16 kts 359°
2026-04-22 13:53 27.98950 102.18567 5095 ft 17 kts 359°
2026-04-22 13:53 27.99072 102.18562 5095 ft 18 kts 358°
2026-04-22 13:53 27.99199 102.18556 5096 ft 19 kts 358°
2026-04-22 13:54 27.99330 102.18551 5098 ft 19 kts 358°
2026-04-22 13:54 27.99462 102.18546 5101 ft 19 kts 358°
2026-04-22 13:54 27.99589 102.18540 5098 ft 18 kts 358°
2026-04-22 13:54 27.99713 102.18535 5098 ft 18 kts 358°
2026-04-22 13:55 27.99836 102.18532 5097 ft 17 kts 358°
2026-04-22 13:55 27.99955 102.18527 5097 ft 17 kts 358°
2026-04-22 13:55 28.00071 102.18522 5097 ft 16 kts 358°
2026-04-22 13:55 28.00185 102.18517 5110 ft 16 kts 358°
2026-04-22 13:56 28.00298 102.18513 5110 ft 16 kts 358°
2026-04-22 13:56 28.00408 102.18509 5110 ft 16 kts 358°
2026-04-22 13:56 28.00472 102.18507 5111 ft 0 kts 353°
2026-04-22 13:56 28.00487 102.18502 5111 ft 2 kts 338°
2026-04-22 13:57 28.00497 102.18485 5111 ft 4 kts 298°
2026-04-22 13:57 28.00504 102.18438 5112 ft 9 kts 270°
2026-04-22 13:57 28.00480 102.18374 5114 ft 8 kts 213°
2026-04-22 13:57 28.00376 102.18374 5112 ft 39 kts 178°
2026-04-22 13:58 27.99840 102.18395 5101 ft 114 kts 178°
2026-04-22 13:58 27.98628 102.18444 5101 ft 182 kts 178°
2026-04-22 13:58 27.97260 102.18498 5243 ft 204 kts 178°
2026-04-22 13:58 27.95847 102.18564 5879 ft 202 kts 178°
2026-04-22 13:59 27.94450 102.18647 6550 ft 200 kts 176°
2026-04-22 13:59 27.93049 102.18741 7117 ft 203 kts 176°
2026-04-22 13:59 27.91631 102.18833 7623 ft 205 kts 176°
2026-04-22 13:59 27.90202 102.18851 8083 ft 207 kts 186°
2026-04-22 14:00 27.88748 102.18467 8320 ft 224 kts 198°
2026-04-22 14:00 27.87227 102.17865 8459 ft 238 kts 200°
2026-04-22 14:00 27.85577 102.17563 8653 ft 243 kts 173°
2026-04-22 14:00 27.83959 102.18110 8915 ft 247 kts 155°
2026-04-22 14:01 27.82404 102.18964 9227 ft 249 kts 152°
2026-04-22 14:01 27.80862 102.19848 9756 ft 249 kts 150°
2026-04-22 14:01 27.79416 102.20951 10077 ft 256 kts 135°
2026-04-22 14:01 27.78377 102.22610 10201 ft 266 kts 109°
2026-04-22 14:02 27.78125 102.24682 10330 ft 273 kts 81°
2026-04-22 14:02 27.78690 102.26750 10462 ft 282 kts 64°
2026-04-22 14:02 27.79572 102.28788 10586 ft 305 kts 62°
2026-04-22 14:02 27.80611 102.31029 10716 ft 331 kts 62°
2026-04-22 14:03 27.81701 102.33376 11144 ft 348 kts 64°
2026-04-22 14:03 27.82827 102.35829 11648 ft 357 kts 63°
2026-04-22 14:03 27.83980 102.38368 11808 ft 378 kts 63°
2026-04-22 14:03 27.85183 102.41038 12428 ft 386 kts 64°
2026-04-22 14:04 27.86424 102.43803 13116 ft 392 kts 64°
2026-04-22 14:04 27.87661 102.46569 13783 ft 398 kts 64°
2026-04-22 14:04 27.88917 102.49385 14414 ft 404 kts 64°
2026-04-22 14:04 27.90196 102.52239 15014 ft 409 kts 63°
2026-04-22 14:05 27.91491 102.55118 15609 ft 414 kts 63°
2026-04-22 14:05 27.92807 102.58040 16192 ft 419 kts 63°
2026-04-22 14:05 27.95466 102.63938 17398 ft 429 kts 63°
2026-04-22 14:06 27.96828 102.66961 17990 ft 434 kts 62°
2026-04-22 14:06 27.98203 102.70018 18527 ft 439 kts 62°
2026-04-22 14:06 27.99593 102.73108 19027 ft 443 kts 62°
2026-04-22 14:06 28.00994 102.76227 19584 ft 446 kts 62°
2026-04-22 14:07 28.02406 102.79374 20040 ft 452 kts 60°
2026-04-22 14:07 28.03837 102.82560 20528 ft 455 kts 61°
2026-04-22 14:07 28.05274 102.85766 20988 ft 459 kts 61°
2026-04-22 14:07 28.06716 102.88986 21635 ft 458 kts 62°
2026-04-22 14:08 28.08162 102.92218 22175 ft 462 kts 61°
2026-04-22 14:08 28.09616 102.95471 22666 ft 465 kts 61°
2026-04-22 14:08 28.11081 102.98750 23141 ft 468 kts 61°
2026-04-22 14:08 28.12557 103.02056 23604 ft 472 kts 61°
2026-04-22 14:09 28.14043 103.05387 24041 ft 475 kts 61°
2026-04-22 14:09 28.15536 103.08737 24481 ft 477 kts 61°
2026-04-22 14:09 28.17036 103.12106 24891 ft 480 kts 61°
2026-04-22 14:09 28.18547 103.15502 25188 ft 486 kts 60°
2026-04-22 14:10 28.20077 103.18943 25562 ft 490 kts 60°
2026-04-22 14:10 28.21095 103.21233 25815 ft 493 kts 61°
2026-04-22 14:10 28.22638 103.24711 26205 ft 495 kts 61°
2026-04-22 14:10 28.24192 103.28215 26562 ft 498 kts 61°
2026-04-22 14:11 28.25751 103.31734 26930 ft 501 kts 61°
2026-04-22 14:11 28.27311 103.35270 27290 ft 504 kts 61°
2026-04-22 14:11 28.28855 103.38797 28869 ft 469 kts 58°
2026-04-22 14:11 28.30187 103.41902 31655 ft 421 kts 58°
2026-04-22 14:12 28.31777 103.45590 34451 ft 352 kts 57°
2026-04-22 14:12 28.32491 103.47235 35014 ft 353 kts 57°
2026-04-22 14:12 28.33602 103.49729 35032 ft 354 kts 56°
2026-04-22 14:13 28.35799 103.54643 35032 ft 345 kts 56°
2026-04-22 14:13 28.37958 103.59505 35023 ft 345 kts 56°
2026-04-22 14:14 28.40105 103.64370 35023 ft 345 kts 56°
2026-04-22 14:14 28.42247 103.69243 35032 ft 346 kts 57°
2026-04-22 14:15 28.44389 103.74127 35031 ft 345 kts 57°
2026-04-22 14:15 28.46526 103.79007 35034 ft 345 kts 57°
2026-04-22 14:16 28.48671 103.83906 35019 ft 347 kts 56°
2026-04-22 14:16 28.50790 103.88760 35027 ft 345 kts 57°
2026-04-22 14:17 28.52922 103.93646 35028 ft 345 kts 57°
2026-04-22 14:17 28.55051 103.98531 35032 ft 344 kts 57°
2026-04-22 14:18 28.57183 104.03424 35034 ft 347 kts 57°
2026-04-22 14:18 28.59302 104.08342 35027 ft 345 kts 57°
2026-04-22 14:19 28.61416 104.13249 35030 ft 345 kts 57°
2026-04-22 14:19 28.63599 104.18098 35031 ft 342 kts 53°
2026-04-22 14:20 28.68137 104.24136 35029 ft 332 kts 35°
2026-04-22 14:20 28.72055 104.26862 35028 ft 330 kts 24°
2026-04-22 14:21 28.76437 104.28457 35029 ft 333 kts 13°
2026-04-22 14:21 28.78739 104.28803 35025 ft 335 kts
2026-04-22 14:22 28.85799 104.28561 35025 ft 339 kts
2026-04-22 14:23 28.92869 104.28097 35029 ft 339 kts
2026-04-22 14:23 28.97581 104.27822 35030 ft 339 kts